This demonstration page uses our WeatherBlox Daily Observations layout. Learn more.

Left ArrowRight Arrow

Hourly Observations for July 8, 2016

Temp ( °F °C ) Dew Point ( °F °C ) Humidity (%) Winds ( mph kmh ) Pressure ( in mb ) Visibility ( mi km ) Precip ( " mm )
12:15 am 00:15 Clear 79 26 72 22 79 79 WNW 13 20 29.85 1011 10 16 N/A
12:35 am 00:35 Clear 79 26 72 22 79 79 WNW 13 20 29.85 1011 10 16 N/A
12:55 am 00:55 Clear 79 26 72 22 79 79 WNW 10 17 29.85 1011 10 16 N/A
1:15 am 01:15 Clear 77 25 72 22 83 83 WNW 10 17 29.83 1010 10 16 N/A
1:35 am 01:35 Clear 77 25 72 22 83 83 W 6 9 29.83 1010 10 16 N/A
1:55 am 01:55 Clear 75 24 72 22 89 89 W 10 17 29.83 1010 10 16 N/A
2:15 am 02:15 Clear 73 23 72 22 94 94 WNW 7 11 29.83 1010 10 16 N/A
2:35 am 02:35 Clear 77 25 72 22 83 83 WNW 9 15 29.83 1010 10 16 N/A
2:55 am 02:55 Clear 79 26 72 22 79 79 WNW 12 19 29.83 1010 10 16 N/A
3:15 am 03:15 Clear 79 26 72 22 79 79 WNW 10 17 29.83 1010 10 16 N/A
3:35 am 03:35 Clear 77 25 70 21 79 79 NW 3 6 29.83 1010 10 16 N/A
3:55 am 03:55 Clear 79 26 70 21 74 74 N N/A 29.83 1010 10 16 N/A
4:15 am 04:15 Clear 77 25 70 21 79 79 N N/A 29.83 1010 10 16 N/A
4:35 am 04:35 Clear 77 25 70 21 79 79 NW 6 9 29.83 1010 10 16 N/A
4:55 am 04:55 Clear 77 25 70 21 79 79 WNW 13 20 29.83 1010 10 16 N/A
5:15 am 05:15 Clear 75 24 70 21 83 83 N N/A 29.83 1010 10 16 N/A
5:35 am 05:35 Clear 75 24 70 21 83 83 NW 8 13 29.85 1011 10 16 N/A
5:55 am 05:55 Sunny 73 23 70 21 89 89 WSW 3 6 29.85 1011 10 16 N/A
6:15 am 06:15 Sunny 75 24 70 21 83 83 WNW 13 20 29.85 1011 10 16 N/A
6:35 am 06:35 Sunny 75 24 70 21 83 83 WNW 9 15 29.85 1011 10 16 N/A
6:55 am 06:55 Sunny 77 25 70 21 79 79 NW 9 15 29.85 1011 10 16 N/A
7:15 am 07:15 Sunny 77 25 70 21 79 79 NNW 6 9 29.85 1011 10 16 N/A
7:35 am 07:35 Sunny 79 26 72 22 79 79 WNW 12 19 29.85 1011 10 16 N/A
7:55 am 07:55 Sunny 79 26 72 22 79 79 WNW 12 19 29.85 1011 10 16 N/A
8:15 am 08:15 Sunny 81 27 72 22 74 74 NW 9 15 29.85 1011 10 16 N/A
8:35 am 08:35 Sunny 81 27 72 22 74 74 NNW 6 9 29.85 1011 10 16 N/A
8:55 am 08:55 Sunny 82 28 72 22 70 70 NW 13 20 29.85 1011 10 16 N/A
9:15 am 09:15 Sunny 82 28 73 23 74 74 WNW 12 19 29.85 1011 10 16 N/A
9:35 am 09:35 Sunny 82 28 72 22 70 70 NW 5 7 29.85 1011 10 16 N/A
9:55 am 09:55 Sunny 84 29 73 23 70 70 WNW 8 13 29.83 1010 10 16 N/A
10:15 am 10:15 Sunny 84 29 72 22 66 66 NW 9 15 29.83 1010 10 16 N/A
10:35 am 10:35 Sunny 86 30 73 23 66 66 WNW 10 17 29.83 1010 10 16 N/A
10:55 am 10:55 Sunny 86 30 73 23 66 66 WNW 7 11 29.83 1010 10 16 N/A
11:15 am 11:15 Sunny 86 30 73 23 66 66 W 3 6 29.83 1010 10 16 N/A
11:35 am 11:35 Sunny 88 31 73 23 62 62 WNW 7 11 29.83 1010 10 16 N/A
11:55 am 11:55 Mostly Cloudy 88 31 73 23 62 62 W 8 13 29.83 1010 10 16 N/A
12:15 pm 12:15 Cloudy 86 30 73 23 66 66 W 5 7 29.83 1010 10 16 N/A
12:35 pm 12:35 Mostly Cloudy 86 30 73 23 66 66 SW 5 7 29.83 1010 10 16 N/A
12:55 pm 12:55 Partly Cloudy 90 32 73 23 59 59 SW 6 9 29.80 1009 10 16 N/A
1:15 pm 13:15 Partly Cloudy 90 32 73 23 59 59 SW 9 15 29.80 1009 10 16 N/A
1:35 pm 13:35 Mostly Cloudy 90 32 73 23 59 59 W 3 6 29.80 1009 10 16 N/A
1:55 pm 13:55 Partly Cloudy 90 32 75 24 63 63 W 7 11 29.80 1009 10 16 N/A
2:15 pm 14:15 Mostly Cloudy with Light Rain 88 31 75 24 66 66 W 10 17 29.80 1009 10 16 N/A
2:35 pm 14:35 Cloudy 81 27 77 25 89 89 SW 10 17 29.85 1011 3 5 N/A
2:55 pm 14:55 Mostly Cloudy 79 26 79 26 100 100 SSE 3 6 29.83 1010 7 11 N/A
3:15 pm 15:15 Partly Cloudy 82 28 79 26 89 89 N N/A 29.83 1010 10 16 N/A
3:35 pm 15:35 Sunny 84 29 77 25 79 79 SSE 6 9 29.80 1009 10 16 N/A
3:55 pm 15:55 Partly Cloudy 86 30 77 25 75 75 SSW 5 7 29.80 1009 10 16 N/A
4:15 pm 16:15 Sunny 86 30 79 26 79 79 WSW 3 6 29.77 1008 10 16 N/A
4:35 pm 16:35 Sunny 88 31 79 26 75 75 W 13 20 29.77 1008 10 16 N/A
4:55 pm 16:55 Sunny 90 32 75 24 63 63 WNW 16 26 29.77 1008 10 16 N/A
5:15 pm 17:15 Sunny 90 32 75 24 63 63 W 12 19 29.77 1008 10 16 N/A
5:35 pm 17:35 Sunny 88 31 73 23 62 62 W 13 20 29.77 1008 10 16 N/A
5:55 pm 17:55 Partly Cloudy 90 32 73 23 59 59 WNW 15 24 29.77 1008 10 16 N/A
6:15 pm 18:15 Mostly Cloudy 88 31 73 23 62 62 W 14 22 29.80 1009 10 16 N/A
6:35 pm 18:35 Partly Cloudy 86 30 72 22 62 62 W 7 11 29.80 1009 10 16 N/A
6:55 pm 18:55 Sunny 88 31 72 22 59 59 N N/A 29.77 1008 10 16 N/A
7:15 pm 19:15 Sunny 88 31 73 23 62 62 W 5 7 29.77 1008 10 16 N/A
7:35 pm 19:35 Sunny 86 30 73 23 66 66 N N/A 29.77 1008 10 16 N/A
7:55 pm 19:55 Sunny 84 29 73 23 70 70 WNW 9 15 29.77 1008 10 16 N/A
8:15 pm 20:15 Sunny 82 28 73 23 74 74 WNW 3 6 29.80 1009 10 16 N/A
8:35 pm 20:35 Sunny 82 28 73 23 74 74 N N/A 29.80 1009 10 16 N/A
8:55 pm 20:55 Clear 82 28 73 23 74 74 WSW 5 7 29.80 1009 10 16 N/A
9:15 pm 21:15 Clear 79 26 73 23 84 84 S 5 7 29.80 1009 10 16 N/A
9:35 pm 21:35 Clear 81 27 73 23 79 79 N N/A 29.80 1009 10 16 N/A
9:55 pm 21:55 Clear 77 25 75 24 94 94 W 6 9 29.83 1010 10 16 N/A
10:15 pm 22:15 Clear 79 26 73 23 84 84 WSW 6 9 29.83 1010 10 16 N/A
10:35 pm 22:35 Clear 79 26 73 23 84 84 N N/A 29.80 1009 10 16 N/A
10:55 pm 22:55 Clear 77 25 73 23 89 89 N N/A 29.80 1009 10 16 N/A
11:15 pm 23:15 Clear 77 25 73 23 89 89 SW 5 7 29.80 1009 10 16 N/A
11:35 pm 23:35 Clear 77 25 73 23 89 89 N N/A 29.80 1009 10 16 N/A
11:55 pm 23:55 Clear 75 24 75 24 100 100 WNW 12 19 29.83 1010 10 16 N/A

Powered by AerisWeather